Weather reports worldwide

Advertisment
Biarritz, France (7602): temperature & dewpoint: 15.06.2018 23:00:00 - 21.06.2018 23:00:00 (CEST)Biarritz, France (7602): temperature 5cm: 15.06.2018 23:00:00 - 21.06.2018 23:00:00 (CEST)Biarritz, France (7602): temperature -20cm & temperature -100cm: 15.06.2018 23:00:00 - 21.06.2018 23:00:00 (CEST)Biarritz, France (7602): wind speed & gusts: 15.06.2018 23:00:00 - 21.06.2018 23:00:00 (CEST)Biarritz, France (7602): wind direction: 15.06.2018 23:00:00 - 21.06.2018 23:00:00 (CEST)Biarritz, France (7602): reduced air pressure: 15.06.2018 23:00:00 - 21.06.2018 23:00:00 (CEST)Biarritz, France (7602): visibility: 15.06.2018 23:00:00 - 21.06.2018 23:00:00 (CEST)Biarritz, France (7602): sunshine duration: 15.06.2018 23:00:00 - 21.06.2018 23:00:00 (CEST)Biarritz, France (7602): precipitation: 15.06.2018 23:00:00 - 21.06.2018 23:00:00 (CEST)
Date & Time tt [°C] td [°C] tt 5cm [°C] tt -20cm [°C] tt -100cm [°C] ff [km/h] ff [kn] fx [km/h] fx [kn] dd ppp [hPa] vv [km] sd [min] rr [mm]
21.06.2018 23:00:00 19,9 18,9 19,9 21,7 18,5 11 6 23 13 WSW 1022,0 6 0 0,0
21.06.2018 22:00:00 19,9 18,6 19,9 21,7 18,5 13 7 27 14 W 1021,6 9 0 0,0
21.06.2018 21:00:00 20,1 18,2 20,2 21,8 18,5 15 8 29 16 W 1021,2 19 8 0,0
21.06.2018 20:00:00 21,1 18,5 21,7 21,8 18,5 12 6 25 13 WSW 1020,9 18 19 0,0
21.06.2018 19:00:00 20,7 18,3 22,1 21,7 18,5 17 9 24 13 W 1021,0 19 0 0,0
21.06.2018 18:00:00 21,6 18,6 24,1 21,6 18,5 17 9 28 15 W 1021,1 20 14 0,0
21.06.2018 17:00:00 21,5 18,5 24,3 21,5 18,5 19 10 29 16 WNW 1021,4 18 8 0,0
21.06.2018 16:00:00 21,3 18,3 24,3 21,3 18,4 19 11 30 16 WNW 1021,5 20 0 0,0
21.06.2018 15:00:00 21,7 18,5 24,8 21,2 18,4 19 10 29 15 NW 1021,4 18 3 0,0
21.06.2018 14:00:00 21,7 18,7 23,6 21,1 18,4 20 11 26 14 NW 1021,4 18 0 0,0
21.06.2018 13:00:00 21,1 18,1 23,5 21,0 18,4 14 8 20 11 NW 1021,2 18 0 0,0
21.06.2018 12:00:00 21,4 17,6 23,6 21,0 18,4 11 6 18 10 WNW 1020,9 19 0 0,0
21.06.2018 11:00:00 21,0 18,6 22,9 20,9 18,4 9 5 17 9 W 1020,9 14 0 0,0
21.06.2018 10:00:00 20,7 18,6 21,1 21,0 18,4 15 8 20 11 W 1020,7 13 0 0,0
21.06.2018 09:00:00 20,1 17,5 20,1 21,1 18,3 14 8 23 12 W 1020,8 16 0 0,0
21.06.2018 08:00:00 19,7 18,0 19,3 21,2 18,4 13 7 27 15 W 1020,6 11 0 0,0
21.06.2018 07:00:00 19,4 17,9 19,2 21,3 18,3 19 10 31 17 WNW 1020,6 11 0 0,0
21.06.2018 06:00:00 19,4 17,7 19,2 21,4 18,3 19 10 28 15 W 1020,0 12 0 0,0
21.06.2018 05:00:00 19,5 17,8 19,3 21,5 18,3 17 9 31 17 W 1019,8 12 0 0,0
21.06.2018 04:00:00 19,5 18,0 19,3 21,6 18,3 18 10 31 17 W 1019,9 11 0 0,0
21.06.2018 03:00:00 19,6 18,1 19,4 21,7 18,3 21 11 34 19 W 1020,1 10 0 0,0
21.06.2018 02:00:00 19,5 18,2 19,4 21,8 18,3 22 12 37 20 W 1020,3 8 0 0,0
21.06.2018 01:00:00 19,8 18,3 19,6 22,0 18,3 17 9 32 18 W 1020,3 9 0 0,0
21.06.2018 00:00:00 19,7 18,2 19,4 22,1 18,3 13 7 29 16 WSW 1020,0 9 0 0,0
20.06.2018 23:00:00 19,7 18,4 19,0 22,2 18,3 18 10 28 15 W 1019,8 9 0 0,0
20.06.2018 22:00:00 19,3 18,1 19,1 22,3 18,2 13 7 23 12 W 1018,6 8 0 0,0
20.06.2018 21:00:00 19,9 18,4 20,0 22,3 18,2 16 9 25 13 W 1018,5 9 0 0,0
20.06.2018 20:00:00 20,4 18,5 21,3 22,3 18,2 14 8 24 13 W 1018,3 12 1 0,0
20.06.2018 19:00:00 20,7 18,8 22,2 22,2 18,2 15 8 23 12 W 1018,2 12 1 0,0
20.06.2018 18:00:00 21,3 19,0 24,0 22,0 18,2 16 8 25 14 W 1018,2 13 28 0,0
20.06.2018 17:00:00 22,4 18,8 28,3 21,7 18,2 14 8 21 12 WNW 1018,0 12 60 0,0
20.06.2018 16:00:00 22,5 19,1 29,2 21,3 18,2 15 8 22 12 WNW 1018,1 11 60 0,0
20.06.2018 15:00:00 22,7 19,5 29,2 20,8 18,2 15 8 22 12 NW 1018,0 10 60 0,0
20.06.2018 14:00:00 23,1 18,8 29,5 20,4 18,2 11 6 21 12 NW 1018,3 9 60 0,0
20.06.2018 13:00:00 23,2 19,6 29,8 20,0 18,2 10 6 17 9 WNW 1018,5 17 60 0,0
20.06.2018 12:00:00 23,0 18,7 30,3 19,8 18,2 6 3 13 7 NNE 1018,5 15 60 0,0
20.06.2018 11:00:00 22,2 18,4 29,3 19,6 18,2 5 3 10 6 ENE 1018,7 14 60 0,0
20.06.2018 10:00:00 19,8 18,8 21,0 19,6 18,2 3 1 8 4 ENE 1018,9 13 40 0,0
20.06.2018 09:00:00 18,0 17,7 18,4 19,7 18,1 2 1 5 3 NNE 1018,8 1,3 0 0,0
20.06.2018 08:00:00 17,3 17,0 15,3 19,8 18,1 0 0 6 3 N 1018,6 0,7 0 0,0
20.06.2018 07:00:00 15,9 15,4 11,9 19,9 18,2 4 2 5 3 SE 1018,6 7 2 0,0
20.06.2018 06:00:00 15,9 15,4 11,9 20,0 18,2 0 0 7 4 N 1018,4 0,9 0 0,0
20.06.2018 05:00:00 16,0 15,4 12,6 20,1 18,1 6 4 7 4 SSE 1018,5 9 0 0,0
20.06.2018 04:00:00 16,1 15,5 13,7 20,2 18,1 5 3 6 3 SSE 1018,8 12 0 0,0
20.06.2018 03:00:00 16,6 16,0 15,3 20,3 18,1 5 3 8 4 S 1019,3 15 0 0,0
20.06.2018 02:00:00 17,6 16,8 16,5 20,3 18,1 5 3 13 7 S 1019,9 11 0 0,0
20.06.2018 01:00:00 18,3 17,5 17,5 20,4 18,1 7 4 14 8 WSW 1020,3 16 0 0,0
20.06.2018 00:00:00 18,8 17,8 17,8 20,5 18,1 8 5 16 9 WSW 1020,5 13 0 0,0
19.06.2018 23:00:00 18,8 17,6 17,2 20,6 18,1 5 3 10 5 SW 1020,5 14 0 0,0
19.06.2018 22:00:00 19,9 17,5 17,3 20,6 18,1 5 3 6 4 SW 1020,1 19 2 0,0
19.06.2018 21:00:00 21,4 17,6 22,4 20,6 18,1 5 3 16 9 NW 1020,2 37 60 0,0
19.06.2018 20:00:00 21,9 17,7 23,7 20,6 18,1 14 7 21 11 NNW 1020,6 32 60 0,0
19.06.2018 19:00:00 21,6 17,4 24,9 20,6 18,1 16 8 28 15 N 1021,1 29 60 0,0
19.06.2018 18:00:00 21,8 17,2 26,7 20,5 18,1 16 9 29 16 N 1021,9 24 60 0,0
19.06.2018 17:00:00 22,4 17,3 25,2 20,3 18,1 16 9 27 15 NNW 1022,3 20 51 0,0
19.06.2018 16:00:00 22,0 16,7 23,4 20,1 18,1 18 10 26 14 NNW 1022,6 20 27 0,0
19.06.2018 15:00:00 20,9 16,3 23,3 19,8 18,0 15 8 26 14 NW 1023,1 47 41 0,0
19.06.2018 14:00:00 22,2 17,1 22,6 19,7 18,1 12 6 19 10 N 1023,3 20 28 0,0
19.06.2018 13:00:00 19,9 16,1 21,8 19,6 18,0 13 7 21 11 NE 1024,0 30 1 0,0
19.06.2018 12:00:00 20,6 15,6 23,2 19,5 18,1 13 7 22 12 E 1024,2 20 16 0,0
19.06.2018 11:00:00 19,9 15,5 19,9 19,5 18,0 12 6 20 11 ENE 1024,6 19 15 0,0
19.06.2018 10:00:00 18,3 15,2 18,2 19,5 18,0 14 8 19 11 ENE 1025,1 19 3 0,0
19.06.2018 09:00:00 17,5 15,7 17,8 19,6 18,0 6 3 13 7 E 1025,5 16 0 0,0
19.06.2018 08:00:00 16,7 15,6 16,7 19,6 18,0 2 1 6 3 S 1025,6 45 0 0,0
19.06.2018 07:00:00 16,5 15,5 16,3 19,7 18,0 3 2 7 4 SSE 1025,6 34 0 0,0
19.06.2018 06:00:00 16,6 15,1 16,4 19,7 18,0 4 2 8 4 SSE 1025,5 43 0 0,0
19.06.2018 05:00:00 17,3 15,3 16,7 19,8 18,0 3 2 8 4 SSE 1025,5 41 0 0,0
19.06.2018 04:00:00 17,6 15,2 17,1 19,9 18,0 2 1 8 4 W 1025,8 37 0 0,0
19.06.2018 03:00:00 17,6 15,0 17,2 19,9 18,0 5 3 12 7 NW 1026,0 52 0 0,0
19.06.2018 02:00:00 17,8 14,5 17,4 20,0 18,0 6 3 14 8 NW 1026,4 60 0 0,0
19.06.2018 01:00:00 17,9 14,6 17,6 20,1 18,0 9 5 15 8 NNW 1026,5 60 0 0,0
19.06.2018 00:00:00 18,0 15,8 17,6 20,1 18,0 10 6 17 9 NW 1026,7 53 0 0,0
18.06.2018 23:00:00 18,3 15,5 17,8 20,1 18,0 9 5 12 7 NNW 1026,8 49 0 0,0
18.06.2018 22:00:00 18,5 16,1 18,3 20,1 18,0 6 3 15 8 N 1026,6 46 15 0,0
18.06.2018 21:00:00 18,6 16,4 19,5 20,1 18,0 8 4 18 10 N 1026,3 47 18 0,0
18.06.2018 20:00:00 18,9 16,7 20,0 20,1 18,0 13 7 23 13 NNW 1026,4 48 0 0,0
18.06.2018 19:00:00 19,3 16,7 21,2 20,0 18,0 16 9 23 13 WNW 1026,4 54 5 0,0
18.06.2018 18:00:00 19,9 16,5 22,2 19,8 18,0 14 7 19 11 NW 1026,7 20 18 0,0
18.06.2018 17:00:00 19,5 16,9 20,8 19,6 18,0 13 7 28 15 NW 1026,9 47 7 0,0
18.06.2018 16:00:00 20,3 17,3 21,7 19,4 18,0 14 8 24 13 W 1026,9 54 18 0,0
18.06.2018 15:00:00 19,1 16,1 23,4 19,3 18,0 17 9 26 14 W 1027,0 26 31 0,0
18.06.2018 14:00:00 19,5 16,5 22,6 19,1 17,9 15 8 24 13 W 1027,2 21 13 0,0
18.06.2018 13:00:00 18,4 16,0 19,3 19,1 17,9 10 5 19 10 WSW 1027,4 33 4 0,0
18.06.2018 12:00:00 16,5 15,5 17,4 19,1 18,0 6 3 15 8 SW 1027,5 9 2 0,0
18.06.2018 11:00:00 16,3 15,5 16,9 19,0 17,9 7 4 14 8 SW 1027,6 3,3 0 0,2
18.06.2018 10:00:00 16,6 15,3 17,4 19,1 17,9 7 4 14 7 WSW 1027,5 6 0 0,0
18.06.2018 09:00:00 16,8 14,3 17,0 19,1 17,9 5 3 9 5 SW 1027,4 37 0 0,0
18.06.2018 08:00:00 16,0 14,0 15,0 19,2 17,9 3 2 6 4 S 1027,0 36 9 0,0
18.06.2018 07:00:00 15,0 13,2 14,6 19,2 17,9 5 3 8 5 S 1026,7 34 0 0,0
18.06.2018 06:00:00 15,0 13,4 14,5 19,4 17,9 5 3 8 4 S 1026,5 33 0 0,0
18.06.2018 05:00:00 14,6 13,0 14,3 19,5 17,9 5 3 8 4 S 1026,5 31 0 0,0
18.06.2018 04:00:00 14,3 13,0 12,4 19,6 17,9 6 3 9 5 S 1026,5 24 0 0,0
18.06.2018 03:00:00 14,1 12,8 12,1 19,7 17,9 4 2 7 4 SSW 1026,8 19 0 0,0
18.06.2018 02:00:00 14,3 12,8 12,6 19,8 17,9 4 2 7 4 S 1026,9 32 0 0,0
18.06.2018 01:00:00 14,7 12,7 12,5 20,0 17,9 4 2 7 4 S 1027,0 29 0 0,0
18.06.2018 00:00:00 15,9 13,2 12,6 20,1 17,9 3 2 5 3 WSW 1027,3 30 0 0,0
17.06.2018 23:00:00 16,4 12,7 14,2 20,2 17,9 3 2 16 9 W 1026,9 41 0 0,0
17.06.2018 22:00:00 16,9 12,8 15,2 20,2 17,9 8 4 14 7 NW 1026,6 46 3 0,0
17.06.2018 21:00:00 17,9 12,6 18,0 20,2 17,8 10 5 19 11 NW 1026,4 47 53 0,0
17.06.2018 20:00:00 18,8 13,4 20,7 20,2 17,8 12 6 24 13 WNW 1026,2 40 60 0,0
17.06.2018 19:00:00 19,4 13,6 23,5 20,2 17,9 16 8 24 13 WNW 1026,0 39 60 0,0
17.06.2018 18:00:00 19,7 14,1 25,2 20,1 17,8 15 8 25 14 WNW 1025,8 56 60 0,0
17.06.2018 17:00:00 20,0 14,1 25,2 19,8 17,8 16 9 24 13 NW 1025,6 45 60 0,0
17.06.2018 16:00:00 19,6 14,2 22,5 19,5 17,9 18 10 32 17 NW 1025,7 35 46 0,0
17.06.2018 15:00:00 20,2 16,0 22,9 19,2 17,9 22 12 36 19 WNW 1025,6 2,8 54 0,0
17.06.2018 14:00:00 19,4 15,7 23,5 18,9 17,8 20 11 34 18 W 1025,5 1,1 58 0,0
17.06.2018 13:00:00 18,7 15,0 23,7 18,8 17,8 15 8 24 13 W 1025,2 1,8 60 0,0
17.06.2018 12:00:00 18,5 15,7 18,0 18,7 17,8 11 6 20 11 W 1025,3 34 20 0,0
17.06.2018 11:00:00 16,7 15,2 17,3 18,7 17,8 9 5 17 9 W 1025,5 15 0 0,0
17.06.2018 10:00:00 17,0 15,0 16,8 18,7 17,8 0 0 13 7 N 1025,5 49 0 0,0
17.06.2018 09:00:00 15,7 15,1 15,0 18,7 17,8 2 1 10 5 NNW 1025,0 13 0 0,6
17.06.2018 08:00:00 15,0 14,2 14,5 18,8 17,8 2 1 8 4 SSE 1024,4 7 0 0,2
17.06.2018 07:00:00 14,6 13,3 14,2 18,9 17,8 2 1 8 4 ESE 1023,9 19 0 0,0
17.06.2018 06:00:00 14,6 13,1 14,3 19,0 17,8 5 3 8 4 S 1023,4 29 0 0,0
17.06.2018 05:00:00 14,4 13,1 13,4 19,0 17,8 4 2 6 4 S 1023,3 33 0 0,0
17.06.2018 04:00:00 13,9 12,8 11,6 19,2 17,8 5 3 7 4 SSW 1023,5 22 0 0,0
17.06.2018 03:00:00 13,7 12,3 11,7 19,3 17,8 5 3 7 4 SSW 1023,5 31 0 0,0
17.06.2018 02:00:00 14,1 12,5 11,9 19,4 17,8 5 3 7 4 SSW 1023,5 24 0 0,0
17.06.2018 01:00:00 15,3 13,1 12,5 19,5 17,8 2 1 6 3 SW 1023,7 38 0 0,0
17.06.2018 00:00:00 15,8 12,9 13,1 19,6 17,8 4 2 8 4 SW 1023,6 35 0 0,0
16.06.2018 23:00:00 16,8 12,9 14,9 19,7 17,8 4 2 9 5 SW 1023,6 46 0 0,0
16.06.2018 22:00:00 16,8 12,3 14,7 19,7 17,8 8 5 10 6 WNW 1022,9 59 18 0,0
16.06.2018 21:00:00 18,2 12,0 17,5 19,7 17,8 5 3 16 8 NW 1022,3 57 29 0,0
16.06.2018 20:00:00 18,3 11,4 18,6 19,7 17,8 11 6 20 11 NW 1022,1 55 51 0,0
16.06.2018 19:00:00 18,9 12,2 20,2 19,7 17,8 12 6 22 12 WNW 1021,5 31 35 0,0
16.06.2018 18:00:00 19,6 12,1 24,6 19,5 17,8 14 8 23 12 NW 1021,4 20 60 0,0
16.06.2018 17:00:00 19,6 12,1 25,9 19,3 17,8 11 6 24 13 N 1021,1 9 60 0,0
16.06.2018 16:00:00 19,7 12,2 24,5 19,0 17,8 12 7 24 13 NW 1021,4 19 60 0,0
16.06.2018 15:00:00 19,6 12,6 23,5 18,8 17,8 10 6 22 12 N 1021,3 18 36 0,0
16.06.2018 14:00:00 19,0 12,0 22,5 18,6 17,8 5 3 17 9 NW 1021,4 50 36 0,0
16.06.2018 13:00:00 19,0 12,3 21,9 18,5 17,8 7 4 21 11 NNW 1021,3 45 3 0,0
16.06.2018 12:00:00 18,2 12,9 19,2 18,5 17,8 9 5 32 17 N 1021,2 58 0 0,0
16.06.2018 11:00:00 17,6 12,5 17,6 18,5 17,8 10 6 17 9 N 1020,9 52 0 0,0
16.06.2018 10:00:00 16,8 13,7 15,9 18,5 17,8 6 3 16 8 NNE 1020,5 27 0 0,0
16.06.2018 09:00:00 16,3 14,5 15,8 18,6 17,8 11 6 20 11 N 1020,0 18 0 0,0
16.06.2018 08:00:00 16,9 15,2 15,8 18,6 17,7 0 0 6 3 N 1019,4 20 0 0,0
16.06.2018 07:00:00 16,4 15,1 15,6 18,6 17,7 4 2 9 5 N 1019,3 20 0 0,0
16.06.2018 06:00:00 16,4 15,4 15,8 18,7 17,8 4 2 12 6 NNW 1019,2 15 0 0,0
16.06.2018 05:00:00 16,5 15,7 15,9 18,7 17,8 4 2 15 8 NNW 1019,2 13 0 0,0
16.06.2018 04:00:00 16,5 15,9 15,7 18,8 17,8 5 3 8 5 NNW 1019,2 13 0 0,0
16.06.2018 03:00:00 16,5 16,2 16,0 18,8 17,8 4 2 6 4 W 1019,6 3,1 0 0,0
16.06.2018 02:00:00 16,5 16,0 15,5 18,9 17,8 3 2 4 2 WSW 1020,0 9 0 0,0
16.06.2018 01:00:00 16,3 15,8 15,1 18,9 17,8 0 0 6 3 N 1020,1 14 0 0,0
16.06.2018 00:00:00 16,5 16,0 16,2 19,0 17,8 4 2 20 11 N 1020,2 9 0 0,2
15.06.2018 23:00:00 16,9 16,4 16,6 19,0 17,8 9 5 15 8 NNW 1020,3 1,8 0 0,8

tt = temperature
td = dewpoint
tt 5cm = temperature 5cm
tt -20cm = temperature -20cm
tt -100cm = temperature -100cm
ff = wind speed
fx = gusts
dd = wind direction
ppp = reduced air pressure
vv = visibility
sd = sunshine duration
rr = precipitation

Next stations